sat.trackr.live / text

‹ back to catalog

STARLINK-37929

NORAD 69557 · 2026-135M

PAYLOAD ACTIVE UNKNOWN

§ Identity

Operator
Country
US
Launch date
2026-06-15
Launch site
AFWTR
Launch vehicle
Mass (kg)
RCS (m²)

Purposes: comms

External: N2YO · Heavens-Above · Gunter

§ Orbital elements

Epoch: 2026-09-19T19:17:59.321184Z

Period
93.91 min
Inclination
97.2850°
Eccentricity
0.0000880
Mean motion
15.33455350 rev/d
Perigee alt
464.9 km
Apogee alt
466.1 km
Semi-major
6,843.6 km
B*
6.0661e-4
RAAN
290.5018°
Arg perigee
115.4930°
Mean anomaly
244.6404°
Rev number
1,489

§ Raw data

STARLINK-379291 69557U 26135M   26262.80415881  .00019566  00000+0  60661-3 0  99902 69557  97.2850 290.5018 0000880 115.4930 244.6404 15.33455350 14899

JSON: /api/v1/satellites/69557 · /tle

For live sub-satellite position, see the globe view (requires WebGL).

§ Visibility from observer

Set your observer location to see the next 7 days of passes ≥ 10°. The values pass through the URL so the page stays shareable.

No JS? Fill the form by hand. The geolocation button needs JavaScript.